Regional Weather Roundup
Issued by NWS

Home | Current Version | Previous Version | Text Only | Print | Product List | Glossary On
Versions: 1 2 3 4 5 6 7 8 9 10 11 12 13 14 15 16 17 18 19 20 21 22 23 24 25 26 27 28 29 30 31 32 33 34 35 36 37 38 39 40 41 42 43 44 45 46 47 48 49 50
000
ASUS45 KTFX 230004
RWRMT
MONTANA HOURLY WEATHER ROUNDUP
NATIONAL WEATHER SERVICE GREAT FALLS MT
604 PM MDT FRI AUG 22 2014

NOTE: "FAIR" INDICATES FEW OR NO CLOUDS BELOW 12000 FEET WITH NO
SIGNIFICANT WEATHER AND/OR OBSTRUCTIONS TO VISIBILITY.

* THESE STATIONS ARE NOT UNDER NWS QUALITY CONTROL. THEY DO NOT
   REPORT WEATHER SUCH AS PRECIPITATION OR FOG.

MTZ001>007-043-230100-
WEST OF THE DIVIDE
CITY           SKY/WX    TMP DP  RH WIND       PRES   REMARKS
KALISPELL      CLOUDY    63  45  52 N20       30.09S
MISSOULA       CLOUDY    63  52  68 N14G25    30.03S
BUTTE          CLOUDY    57  43  60 VRB5G20   30.07R
MULLAN PASS    CLOUDY    52  46  80 CALM      30.13R
* ESSEX        N/A       57  42  57 E2G19      N/A
* LINCOLN      N/A       59  47  65 NE14G22    N/A
* LOOKOUT PASS N/A       58  47  67 NW6G16     N/A
* POLSON       N/A       60  51  72 N3         N/A
* RONAN APT    CLOUDY    61  52  72 N7         N/A
* SEELEY LAKE  N/A       58  52  81 N5G11      N/A
* THOMP F APT  CLOUDY    55  47  75 S7G14      N/A
$$

MTZ008-052>055-230100-
SOUTHWEST MONTANA
CITY           SKY/WX    TMP DP  RH WIND       PRES   REMARKS
BOZEMAN        CLOUDY    59  48  67 W6        30.07R
DILLON         LGT RAIN  52  48  86 W10       30.07R
W YELLOWSTONE  CLOUDY    54  46  74 W7        30.10S
* THREE FORKS  CLOUDY    55  37  51 N/A        N/A
* BOULDER HILL N/A       54  42  64 N10G16     N/A
* MONIDA PASS  N/A       49  44  83 NW8        N/A
* RAYNOLDS PAS N/A       48  47  96 N8         N/A
* WHITEHALL    N/A       60  46  60 E6G14      N/A
* WISE RIVER   N/A       51  40  66 W14G21     N/A
$$

MTZ009>010-012-014-046-048-049-054-230100-
EAST SLOPES AND CENTRAL MONTANA
CITY           SKY/WX    TMP DP  RH WIND       PRES   REMARKS
CUT BANK       CLOUDY    50  46  86 N17       30.21S
GREAT FALLS    CLOUDY    57  52  83 N14       30.12R
HELENA         CLOUDY    63  48  58 N14       30.05F
MALMSTROM AFB  MOCLDY    57  52  83 N12       30.13S
* CONRAD       MOCLDY    55  52  90 NW13G20    N/A
* DEARBORN     N/A       57  50  78 N12G21     N/A
* EAST GLACIER N/A       45  44  96 NE18G23    N/A
* MONARCH      N/A       50  47  89 VRB11      N/A
* PENDROY      N/A       49  48  96 N17G22     N/A
* SAINT MARY   N/A       46  44  93 N6G15      N/A
* SWEET GRASS  N/A       47  47 100 NE22G30    N/A
$$

MTZ011-013-016-021-035-040-045-047-050-051-230100-
NORTH CENTRAL MONTANA
CITY           SKY/WX    TMP DP  RH WIND       PRES   REMARKS
HAVRE          LGT RAIN  59  57  93 E13       30.11F
LEWISTOWN      LGT RAIN  57  55  93 N10       30.10R
* CHESTER      N/A       55  52  90 NE10G19    N/A
* DENTON       N/A       58  55  90 N9         N/A
* GEYSER       N/A       57  50  78 N11        N/A
* JUDITH GAP   N/A       54  54 100 N14        N/A
* LOMA         N/A       62  55  78 VRB11G16    N/A
$$

MTZ017>020-022>027-061-062-230100-
NORTHEAST MONTANA
CITY           SKY/WX    TMP DP  RH WIND       PRES   REMARKS
GLASGOW        CLOUDY    64  54  70 E21       30.09R
GLENDIVE       MOCLDY    66  61  84 NE18      30.07F
JORDAN         MOCLDY    66  55  68 E14G24    30.06S
SIDNEY         CLOUDY    66  59  78 NE7       30.10S
WOLF POINT     CLOUDY    68  54  61 E16       30.08S
* BEAVER HILL  N/A       65  59  81 NE17G23    N/A
* CIRCLE       N/A       65  58  78 NE6        N/A
* LINDSAY DVD  N/A       63  57  81 NE17G22    N/A
* SACO         N/A       65  54  68 NE16       N/A
$$

MTZ028>042-056>058-230100-
SOUTHCENTRAL AND SOUTHEAST MONTANA
CITY           SKY/WX    TMP DP  RH WIND       PRES   REMARKS
BAKER          CLOUDY    66  63  90 N/A       30.05F
BILLINGS       LGT RAIN  63  57  81 NE7       30.03S
LIVINGSTON     CLOUDY    61  52  72 E10       30.06S
MILES CITY     CLOUDY    70  59  68 NE15      30.01S
* LAUREL APT   CLOUDY    63  55  75 N5         N/A
* ROUNDUP APT  CLOUDY    64  54  70 N7         N/A
* ALZADA       N/A       70  59  68 NE11       N/A
* HYSHAM       N/A       68  47  47 E11        N/A
* REED POINT   N/A       60  57  90 SW1        N/A
* ROSCOE HILL  N/A       55  49  80 W1         N/A
$$

REGIONAL REPORTS...DAKOTAS
CITY           SKY/WX    TMP DP  RH WIND       PRES   REMARKS
WILLISTON      CLOUDY    66  55  68 E12       30.11S
DICKINSON      CLOUDY    68  61  78 NE12      30.06S
BEACH          N/A       64  63  97 NE15      30.07F
CROSBY         CLOUDY    64  55  73 NE8       30.14S
TIOGA          CLOUDY    64  59  84 E16       30.15S
WATFORD CITY   CLOUDY    64  57  78 NE14      30.08S
BISMARCK       CLOUDY    68  64  87 E12       30.05F
GRAND FORKS    MOCLDY    72  63  73 N12       30.04R
FARGO          CLOUDY    72  66  81 N13       30.02S
BUFFALO SD     MOCLDY    70  59  68 E13       29.98S
RAPID CITY     MOCLDY    73  63  71 E7        30.01F
$$

REGIONAL REPORTS...WYOMING/IDAHO/WASHINGTON
CITY           SKY/WX    TMP DP  RH WIND       PRES   REMARKS
GILLETTE       TSTM      63  54  73 N25G35    29.96R
SHERIDAN       CLOUDY    70  55  59 N7        30.00S
CODY           CLOUDY   N/A N/A N/A N9        30.02F
YELLOWSTONE LA CLOUDY    50  39  66 VRB3      30.18F
SALMON         CLOUDY    57  45  64 SW20G25   30.03S
MULLAN PASS    CLOUDY    52  46  80 CALM      30.13S
SAND POINT     MOCLDY    66  48  52 N20G30    30.05S
SPOKANE        PTCLDY    72  48  43 NE15      29.99S

$$




USA.gov is the U.S. government's official web portal to all federal, state and local government web resources and services.